TimeCDT,TemperatureF,Dew PointF,Humidity,Sea Level PressureIn,VisibilityMPH,Wind Direction,Wind SpeedMPH,Gust SpeedMPH,PrecipitationIn,Events,Conditions,WindDirDegrees,DateUTC
12:15 AM,59.0,33.8,39,29.92,10.0,SSE,5.8,-,N/A,,Overcast,150,2012-10-20 05:15:00
12:35 AM,59.0,35.6,42,29.92,10.0,SSE,5.8,-,N/A,,Scattered Clouds,150,2012-10-20 05:35:00
12:55 AM,57.2,35.6,44,29.91,10.0,SSE,4.6,-,N/A,,Clear,160,2012-10-20 05:55:00
1:35 AM,55.4,35.6,47,29.92,10.0,South,5.8,-,N/A,,Clear,180,2012-10-20 06:35:00
1:55 AM,55.4,35.6,47,29.92,10.0,SE,3.5,-,N/A,,Partly Cloudy,130,2012-10-20 06:55:00
2:35 AM,55.4,35.6,47,29.91,10.0,SSE,3.5,-,N/A,,Scattered Clouds,150,2012-10-20 07:35:00
2:55 AM,55.4,35.6,47,29.90,10.0,SSE,3.5,-,N/A,,Scattered Clouds,160,2012-10-20 07:55:00
3:15 AM,53.6,37.4,54,29.90,10.0,Calm,Calm,-,N/A,,Mostly Cloudy,0,2012-10-20 08:15:00
3:55 AM,50.0,39.2,66,29.89,10.0,Calm,Calm,-,N/A,,Partly Cloudy,0,2012-10-20 08:55:00
4:15 AM,51.8,39.2,62,29.88,10.0,South,3.5,-,N/A,,Scattered Clouds,190,2012-10-20 09:15:00
4:35 AM,50.0,39.2,66,29.88,10.0,Calm,Calm,-,N/A,,Scattered Clouds,0,2012-10-20 09:35:00
4:55 AM,50.0,39.2,66,29.88,10.0,Calm,Calm,-,N/A,,Scattered Clouds,0,2012-10-20 09:55:00
5:15 AM,48.2,39.2,71,29.88,10.0,Calm,Calm,-,N/A,,Partly Cloudy,0,2012-10-20 10:15:00
5:35 AM,48.2,37.4,66,29.88,10.0,North,-9999.0,-,N/A,,Clear,0,2012-10-20 10:35:00
5:55 AM,46.4,37.4,71,29.88,10.0,North,-9999.0,-,N/A,,Clear,0,2012-10-20 10:55:00
6:15 AM,48.2,39.2,71,29.88,10.0,North,-9999.0,-,N/A,,Clear,0,2012-10-20 11:15:00
6:35 AM,46.4,39.2,76,29.88,10.0,North,-9999.0,-,N/A,,Clear,0,2012-10-20 11:35:00
6:55 AM,48.2,39.2,71,29.88,10.0,North,-9999.0,-,N/A,,Clear,0,2012-10-20 11:55:00
7:15 AM,48.2,39.2,71,29.88,10.0,Calm,Calm,-,N/A,,Clear,0,2012-10-20 12:15:00
7:35 AM,46.4,39.2,76,29.89,10.0,Calm,Calm,-,N/A,,Clear,0,2012-10-20 12:35:00
7:55 AM,46.4,39.2,76,29.89,10.0,Calm,Calm,-,N/A,,Clear,0,2012-10-20 12:55:00
8:15 AM,48.2,42.8,82,29.89,10.0,Calm,Calm,-,N/A,,Scattered Clouds,0,2012-10-20 13:15:00
8:55 AM,55.4,44.6,67,29.90,10.0,Calm,Calm,-,N/A,,Overcast,0,2012-10-20 13:55:00
9:15 AM,60.8,46.4,59,29.91,10.0,SSE,5.8,-,N/A,,Overcast,160,2012-10-20 14:15:00
9:35 AM,62.6,48.2,59,29.90,10.0,SSE,6.9,-,N/A,,Overcast,150,2012-10-20 14:35:00
9:55 AM,64.4,51.8,64,29.90,10.0,SSE,9.2,-,N/A,,Overcast,160,2012-10-20 14:55:00
10:15 AM,66.2,53.6,64,29.90,10.0,SSE,8.1,-,N/A,,Overcast,160,2012-10-20 15:15:00
10:35 AM,66.2,55.4,68,29.90,10.0,South,9.2,-,N/A,,Overcast,170,2012-10-20 15:35:00
11:15 AM,73.4,59.0,61,29.89,10.0,South,11.5,16.1,N/A,,Overcast,170,2012-10-20 16:15:00
11:55 AM,78.8,62.6,57,29.87,10.0,SSW,17.3,23.0,N/A,,Clear,200,2012-10-20 16:55:00
12:15 PM,80.6,62.6,54,29.86,10.0,SSW,18.4,21.9,N/A,,Clear,210,2012-10-20 17:15:00
12:35 PM,80.6,64.4,58,29.86,10.0,SSW,13.8,20.7,N/A,,Clear,200,2012-10-20 17:35:00
12:55 PM,82.4,64.4,54,29.85,10.0,SSW,12.7,19.6,N/A,,Clear,210,2012-10-20 17:55:00
1:15 PM,82.4,64.4,54,29.83,10.0,South,16.1,23.0,N/A,,Clear,190,2012-10-20 18:15:00
1:35 PM,84.2,62.6,48,29.82,10.0,SSW,13.8,20.7,N/A,,Clear,200,2012-10-20 18:35:00
1:55 PM,84.2,62.6,48,29.81,10.0,SSW,13.8,21.9,N/A,,Clear,200,2012-10-20 18:55:00
2:15 PM,86.0,62.6,45,29.79,10.0,SSW,12.7,20.7,N/A,,Clear,200,2012-10-20 19:15:00
2:35 PM,86.0,62.6,45,29.78,10.0,SSW,16.1,20.7,N/A,,Clear,210,2012-10-20 19:35:00
2:55 PM,87.8,62.6,43,29.77,10.0,SW,15.0,24.2,N/A,,Clear,220,2012-10-20 19:55:00
3:15 PM,89.6,60.8,38,29.76,10.0,South,17.3,21.9,N/A,,Clear,190,2012-10-20 20:15:00
3:35 PM,89.6,60.8,38,29.76,10.0,SSW,10.4,21.9,N/A,,Clear,200,2012-10-20 20:35:00
3:55 PM,89.6,62.6,40,29.75,10.0,South,12.7,23.0,N/A,,Clear,190,2012-10-20 20:55:00
4:15 PM,89.6,60.8,38,29.75,10.0,South,13.8,23.0,N/A,,Clear,180,2012-10-20 21:15:00
4:35 PM,89.6,60.8,38,29.75,10.0,South,15.0,20.7,N/A,,Clear,190,2012-10-20 21:35:00
4:55 PM,89.6,60.8,38,29.75,10.0,South,12.7,21.9,N/A,,Clear,190,2012-10-20 21:55:00
5:15 PM,89.6,59.0,36,29.75,10.0,South,12.7,-,N/A,,Clear,190,2012-10-20 22:15:00
5:35 PM,87.8,59.0,38,29.75,10.0,South,15.0,18.4,N/A,,Clear,180,2012-10-20 22:35:00
5:55 PM,86.0,60.8,43,29.75,10.0,South,13.8,19.6,N/A,,Clear,170,2012-10-20 22:55:00
6:15 PM,86.0,59.0,40,29.75,10.0,South,11.5,18.4,N/A,,Clear,190,2012-10-20 23:15:00
6:35 PM,84.2,60.8,45,29.76,10.0,South,13.8,-,N/A,,Clear,180,2012-10-20 23:35:00
6:55 PM,84.2,62.6,48,29.76,10.0,South,15.0,20.7,N/A,,Clear,180,2012-10-20 23:55:00
7:15 PM,82.4,62.6,51,29.76,10.0,SSE,12.7,-,N/A,,Clear,160,2012-10-21 00:15:00
7:55 PM,80.6,64.4,58,29.78,10.0,South,11.5,18.4,N/A,,Clear,170,2012-10-21 00:55:00
8:15 PM,78.8,64.4,61,29.78,10.0,SSE,13.8,19.6,N/A,,Clear,160,2012-10-21 01:15:00
8:35 PM,77.0,64.4,65,29.79,10.0,South,10.4,-,N/A,,Clear,170,2012-10-21 01:35:00
8:55 PM,77.0,64.4,65,29.79,10.0,South,10.4,-,N/A,,Clear,170,2012-10-21 01:55:00
9:15 PM,77.0,64.4,65,29.80,10.0,SSE,10.4,16.1,N/A,,Clear,160,2012-10-21 02:15:00
9:35 PM,75.2,64.4,69,29.80,10.0,SSE,9.2,-,N/A,,Clear,150,2012-10-21 02:35:00
9:55 PM,75.2,64.4,69,29.80,10.0,SSE,8.1,-,N/A,,Clear,150,2012-10-21 02:55:00
10:15 PM,75.2,64.4,69,29.80,10.0,SE,10.4,-,N/A,,Clear,140,2012-10-21 03:15:00
10:55 PM,73.4,64.4,73,29.81,10.0,SSE,9.2,-,N/A,,Clear,150,2012-10-21 03:55:00
11:15 PM,73.4,64.4,73,29.81,10.0,SSE,10.4,-,N/A,,Clear,160,2012-10-21 04:15:00
11:35 PM,73.4,64.4,73,29.81,10.0,SSE,8.1,-,N/A,,Clear,160,2012-10-21 04:35:00
11:55 PM,73.4,64.4,73,29.81,10.0,SSE,6.9,-,N/A,,Clear,160,2012-10-21 04:55:00